Regional Weather Roundup
Issued by NWS

Home | Current Version | Previous Version | Graphics & Text | Print | Product List | Glossary On
Versions: 1 2 3 4 5 6 7 8 9 10 11 12 13 14 15 16 17 18 19 20 21 22 23 24 25 26 27 28 29 30 31 32 33 34 35 36 37 38 39 40 41 42 43 44 45 46 47 48 49 50
000
ASUS43 KFSD 022110
RWRSD

WEATHER ROUNDUP FOR SOUTH DAKOTA
NATIONAL WEATHER SERVICE SIOUX FALLS SD
300 PM CST MON MAR 02 2015

NOTE: "FAIR" INDICATES FEW OR NO CLOUDS BELOW 12,000 FEET WITH NO
SIGNIFICANT WEATHER AND/OR OBSTRUCTIONS TO VISIBILITY.


SDZ001>005-009-010-012>017-022200-
NORTHWEST AND NORTH CENTRAL SOUTH DAKOTA

CITY           SKY/WX    TMP DP  RH WIND       PRES   REMARKS
BUFFALO          N/A     43  17  35 W8        29.68F
FAITH            N/A     47  17  30 S17       29.76F
MOBRIDGE       MOSUNNY   46  20  35 S24G32    29.81F
$$

SDZ012>016-024>037-041>051-057-063-072>074-022200-
SOUTHWEST AND SOUTH CENTRAL SOUTH DAKOTA

CITY           SKY/WX    TMP DP  RH WIND       PRES   REMARKS
RAPID CTY ARPT CLOUDY    47  23  38 S12       29.73F
PIERRE         MOSUNNY   47  16  29 S24G32    29.86F
CUSTER         MOSUNNY   38  21  50 W7        29.71F
ELLSWORTH AFB  PTSUNNY   44  28  53 N12       29.72F
PHILIP         MOSUNNY   48  16  27 S21G28    29.79F
PINE RIDGE     PTSUNNY   44  21  40 S21G26    29.79F
SPEARFISH      FAIR      39  19  45 CALM      29.75F
WINNER         FAIR      44  11  26 S24G37    29.92F
$$

SDZ004>011-016>023-039-040-022200-
NORTHEAST SOUTH DAKOTA

CITY           SKY/WX    TMP DP  RH WIND       PRES   REMARKS
ABERDEEN       PTSUNNY   34  19  54 S30G41    29.99F WCI  20
WATERTOWN      CLOUDY    26  18  71 S21G26    30.06F WCI  12
SISSETON         N/A     32  18  56 S24       30.08F WCI  19
$$

SDZ017-020-022-023-036>040-048>070-022200-
SOUTHEAST SOUTH DAKOTA

CITY           SKY/WX    TMP DP  RH WIND       PRES   REMARKS
SIOUX FALLS    CLOUDY    29  16  58 S15       30.15F WCI  18
HURON          CLOUDY    33  16  49 S23G31    30.04F WCI  21
CHAMBERLAIN    CLOUDY    42  17  37 S20G31    29.95F
MITCHELL       CLOUDY    37  16  42 S23G33    30.07F
YANKTON        CLOUDY    36  16  44 SE20      30.13F
$$

ABBREVIATIONS USED IN REMARKS
   TC - TEMPERATURE IN CELSIUS
  WCI - WIND CHILL INDEX
   HX - HEAT INDEX
  VSB - VISIBILITY




USA.gov is the U.S. government's official web portal to all federal, state and local government web resources and services.